[[{"header":{"parameterUnit":"m.s-1","parameterCategory":2,"la1":30.2991,"la2":30.254,"lo1":-89.0895,"lo2":-89.0444,"dx":0.0017,"dy":0.0017,"nx":28,"ny":28,"refTime":"2022-11-05T15:00:00:Z","depth":"0","parameterNumber":2,"parameterNumberName":"U-component_of_CURRENTS"},"data":[0,0,0,0,0,0,0,0,0,0,0,0,0,0,0,0,0,0,0,0,0,0,0,0,0,0,0,0,0,0,0,0,0,0,0,0,0,0,0,0,0,0,0,0,0,0,0,0,0,0,0,0,0,0,0,0,0,0,0.3636,0.3636,0,0.3606,0.3605,0.3604,0.3622,0.3623,0.3624,0.3625,0.3629,0.3628,0.3627,0,0,0,0,0,0,0,0,0,0,0,0,0,0.3504,0.3507,0.3636,0.3636,0.3636,0.3606,0.3605,0.3604,0.3622,0.3623,0.3625,0.3626,0.363,0.3628,0.3627,0,0,0,0,0,0,0,0,0,0,0,0,0,0.3523,0.3508,0.3636,0.3644,0.3644,0.3606,0.3605,0.3604,0.3621,0.3623,0.3625,0.3627,0.363,0.3629,0.3627,0.3581,0,0,0.3622,0.3622,0,0,0,0,0,0,0,0,0.3522,0.3527,0.3642,0.3643,0.3644,0.3623,0.356,0.3599,0.3621,0.3626,0.3625,0.3628,0.3632,0.363,0.3614,0.3581,0.3581,0.3622,0.3621,0.3621,0.362,0,0,0,0,0,0,0,0.3521,0.3527,0.362,0.3642,0.3643,0.3579,0.3585,0.3566,0.3616,0.3625,0.3628,0.363,0.3632,0.3615,0.3615,0.3581,0.3622,0.3621,0.362,0.3619,0.3621,0.3621,0,0,0,0,0,0,0.3542,0.3528,0.3621,0.3619,0.359,0.3581,0.3587,0.3624,0.3616,0.3617,0.3629,0.3631,0.3617,0.3616,0.3615,0.3659,0.3621,0.3619,0.3618,0.362,0.3621,0.3622,0,0,0,0,0,0,0.354,0.3552,0.3622,0.3573,0.3578,0.3583,0.3623,0.3623,0.3616,0.3619,0.362,0.3624,0.3619,0.3617,0.3616,0.3656,0.3619,0.3617,0.3618,0.362,0.3621,0.3685,0,0,0,0,0,0,0.3537,0.3552,0.3563,0.3576,0.3582,0.3606,0.3622,0.3621,0.3616,0.3619,0.3614,0.3616,0.362,0.3618,0.3614,0.3654,0.3616,0.3617,0.3619,0.3621,0.3682,0.3689,0.3694,0,0,0,0,0,0.3532,0.3538,0.3564,0.3574,0.3607,0.3605,0.3601,0.3606,0.3614,0.3606,0.3615,0.3617,0.3628,0.3617,0.3612,0.3652,0.3616,0.3619,0.3621,0.3679,0.3687,0.3694,0,0,0,0,0,0,0.345,0.3541,0.357,0.3595,0.3607,0.361,0.3591,0.3602,0.3597,0.3603,0.3609,0.3611,0.3636,0.3621,0.3608,0.3659,0.363,0.3631,0.3676,0.3683,0.3689,0.3703,0.3615,0,0,0,0,0,0.3449,0.3499,0.3549,0.3559,0.3572,0.3582,0.3575,0.3591,0.3596,0.3595,0.3598,0.361,0.3636,0.364,0.3647,0.365,0.3639,0.3678,0.3685,0.369,0.3698,0.3704,0.3712,0.3629,0.3629,0.3629,0,0,0.3419,0.347,0.3496,0.3548,0.3554,0.3579,0.3581,0.358,0.3608,0.3595,0.3612,0.3624,0.3641,0.3669,0.3679,0.3663,0.3709,0.3693,0.3698,0.3703,0.3707,0.3715,0.3722,0.363,0.363,0.363,0,0,0.3384,0.3432,0.347,0.3494,0.3528,0.3547,0.3555,0.3575,0.3592,0.3605,0.3631,0.3668,0.3662,0.3712,0.3732,0.3768,0.3743,0.3764,0.3805,0.3811,0.3818,0.3823,0.3824,0.383,0.3766,0.3766,0.3766,0,0.3339,0.3413,0.3462,0.3497,0.3519,0.3545,0.3573,0.359,0.3607,0.3632,0.3621,0.3677,0.3698,0.3772,0.3802,0.3789,0.3767,0.3777,0.3819,0.3825,0.383,0.3829,0.3834,0.3769,0.3769,0.3769,0.3768,0,0.3355,0.3402,0.3409,0.3501,0.3519,0.3536,0.3593,0.3611,0.3634,0.3666,0.3722,0.3745,0.3783,0.3811,0.382,0.3883,0.3849,0.3828,0.3801,0.3842,0.3839,0.3843,0.3774,0.3773,0.3772,0.3771,0,0,0.329,0.3409,0.3411,0.3451,0.3531,0.3541,0.3602,0.3667,0.3694,0.3734,0.3774,0.3859,0.3867,0.3891,0.3912,0.3934,0.3972,0.3894,0.3893,0.3897,0.3966,0.3932,0.3933,0.394,0.3941,0.3942,0.395,0,0.3288,0.336,0.3429,0.3476,0.3515,0.3577,0.3619,0.368,0.3721,0.3756,0.3831,0.3862,0.3899,0.3903,0.3946,0.3958,0.3984,0.3971,0.3923,0.3922,0.389,0.3938,0.3731,0.3719,0.3954,0.3955,0.3955,0,0.3292,0.3344,0.3403,0.3485,0.3505,0.3534,0.3605,0.3646,0.3731,0.3758,0.3828,0.3859,0.3946,0.3932,0.4004,0.398,0.3986,0.3992,0.3991,0.3941,0.3897,0.3715,0.3718,0.3465,0.3961,0.3961,0.396,0,0.3227,0.3322,0.3369,0.3398,0.3493,0.352,0.3562,0.3643,0.3673,0.3747,0.3759,0.3861,0.3878,0.3926,0.3974,0.3972,0.4012,0.4006,0.399,0.3986,0.3795,0.3773,0.3549,0.4044,0.4044,0.4044,0.4044,0,0.3207,0.3233,0.3335,0.3352,0.3387,0.3462,0.3492,0.3548,0.3611,0.3654,0.3739,0.3774,0.3867,0.3912,0.3961,0.3992,0.4005,0.4011,0.3993,0.3812,0.3793,0.3553,0.3507,0.4044,0.4044,0.4044,0.4044,0,0.3127,0.3199,0.3247,0.3338,0.3358,0.3373,0.3442,0.3469,0.352,0.3572,0.359,0.3696,0.3767,0.3852,0.3918,0.3952,0.384,0.3992,0.3778,0.3737,0.3511,0.3481,0.325,0.3182,0.3989,0.3988,0.3988,0,0.3106,0.3124,0.3212,0.324,0.3278,0.3313,0.3346,0.3413,0.3456,0.3534,0.3565,0.3632,0.372,0.3805,0.3855,0.3923,0.3767,0.3743,0.3733,0.3477,0.3428,0.3311,0.3264,0.3497,0.3492,0.3489,0.3486,0,0.3063,0.3089,0.3132,0.3193,0.3231,0.3262,0.3318,0.3327,0.3417,0.3447,0.3519,0.358,0.3676,0.366,0.3719,0.3734,0.3487,0.3673,0.3435,0.3064,0.289,0.282,0.3518,0.3453,0.3456,0.3458,0.346,0.3461,0.3035,0.3053,0.3123,0.3163,0.3205,0.323,0.3225,0.3288,0.3317,0.3345,0.3434,0.3433,0.3404,0.349,0.3469,0.3179,0.3326,0.3021,0.3019,0.2932,0.281,0.3459,0.3364,0.3367,0.3369,0.3371,0.3373,0,0.3035,0.3063,0.3102,0.3159,0.3177,0.3205,0.323,0.3201,0.3213,0.3229,0.3256,0.3092,0.2987,0.2904,0.2677,0.2498,0.2415,0.2343,0.2065,0.2076,0.263,0.2547,0.2232,0.2232,0.2233,0.2233,0.2233,0.2234,0.305,0.3083,0.3095,0.3128,0.3148,0.3116,0.3101,0.3051,0.3029,0.2868,0.2732,0.2685,0.2475,0.2101,0.1763,0.1739,0.155,0.1465,0.1534,0.1812,0.1871,0.1927,0.1827,0.1368,0.1367,0.0821,0.0817,0.0813]},{"header":{"parameterUnit":"m.s-1","parameterCategory":2,"la1":30.2991,"la2":30.254,"lo1":-89.0895,"lo2":-89.0444,"dx":0.0017,"dy":0.0017,"nx":28,"ny":28,"refTime":"2022-11-05T15:00:00:Z","depth":"0","parameterNumber":3,"parameterNumberName":"V-component_of_CURRENTS"},"data":[0,0,0,0,0,0,0,0,0,0,0,0,0,0,0,0,0,0,0,0,0,0,0,0,0,0,0,0,0,0,0,0,0,0,0,0,0,0,0,0,0,0,0,0,0,0,0,0,0,0,0,0,0,0,0,0,0,0,-0.0926,-0.0926,0,-0.0942,-0.0942,-0.0942,-0.0949,-0.0949,-0.0949,-0.0949,-0.0988,-0.0989,-0.099,0,0,0,0,0,0,0,0,0,0,0,0,0,-0.0734,-0.0738,-0.0926,-0.0926,-0.0927,-0.0942,-0.0942,-0.0942,-0.0949,-0.0949,-0.0949,-0.0949,-0.0988,-0.0989,-0.099,0,0,0,0,0,0,0,0,0,0,0,0,0,-0.079,-0.074,-0.0926,-0.0932,-0.0933,-0.0942,-0.0942,-0.0942,-0.0949,-0.0949,-0.0949,-0.0949,-0.0988,-0.0989,-0.0991,-0.0999,0,0,-0.0995,-0.0996,0,0,0,0,0,0,0,0,-0.0787,-0.0797,-0.0931,-0.0932,-0.0933,-0.0944,-0.0888,-0.0963,-0.0949,-0.0942,-0.0949,-0.0949,-0.0976,-0.0979,-0.098,-0.1,-0.1002,-0.0995,-0.0996,-0.0997,-0.0997,0,0,0,0,0,0,0,-0.0783,-0.0795,-0.0932,-0.0932,-0.0933,-0.0877,-0.0886,-0.0902,-0.0958,-0.0943,-0.0943,-0.0946,-0.0977,-0.0979,-0.0981,-0.1003,-0.0995,-0.0997,-0.0998,-0.0998,-0.1025,-0.1024,0,0,0,0,0,0,-0.0793,-0.0793,-0.0931,-0.0932,-0.0859,-0.0881,-0.0891,-0.094,-0.0958,-0.0961,-0.0946,-0.0947,-0.0976,-0.0979,-0.0983,-0.0985,-0.0997,-0.0998,-0.0999,-0.1025,-0.1025,-0.1024,0,0,0,0,0,0,-0.0789,-0.0807,-0.093,-0.086,-0.0872,-0.0886,-0.0939,-0.094,-0.0943,-0.096,-0.0964,-0.0948,-0.0976,-0.098,-0.1002,-0.0987,-0.0999,-0.1,-0.1025,-0.1025,-0.1024,-0.0995,0,0,0,0,0,0,-0.0784,-0.0807,-0.0829,-0.0863,-0.0877,-0.0929,-0.0939,-0.094,-0.0945,-0.0946,-0.0963,-0.0966,-0.0976,-0.1,-0.1003,-0.0989,-0.1002,-0.1025,-0.1025,-0.1025,-0.0996,-0.0994,-0.0991,0,0,0,0,0,-0.0778,-0.0797,-0.0832,-0.0847,-0.0915,-0.0928,-0.0929,-0.0936,-0.0945,-0.094,-0.0963,-0.0966,-0.0999,-0.1001,-0.1006,-0.0991,-0.1026,-0.1025,-0.1025,-0.0997,-0.0994,-0.0991,0,0,0,0,0,0,-0.0694,-0.0802,-0.0839,-0.0885,-0.0908,-0.093,-0.0917,-0.0936,-0.0949,-0.0949,-0.0973,-0.0978,-0.0986,-0.0998,-0.1,-0.0997,-0.1009,-0.1009,-0.0986,-0.0984,-0.0981,-0.0967,-0.1003,0,0,0,0,0,-0.07,-0.076,-0.0828,-0.0854,-0.0873,-0.0901,-0.0903,-0.0916,-0.0936,-0.0941,-0.0961,-0.0976,-0.0987,-0.0994,-0.1004,-0.1012,-0.1005,-0.1002,-0.1,-0.0998,-0.099,-0.0983,-0.0979,-0.1023,-0.1023,-0.1023,0,0,-0.0668,-0.0734,-0.0763,-0.0841,-0.086,-0.0882,-0.0902,-0.0905,-0.0916,-0.0945,-0.0957,-0.097,-0.0988,-0.0991,-0.0995,-0.1,-0.0978,-0.0997,-0.0995,-0.0988,-0.0982,-0.0977,-0.0973,-0.1023,-0.1023,-0.1023,0,0,-0.0623,-0.0702,-0.0737,-0.077,-0.0815,-0.0843,-0.085,-0.0887,-0.0896,-0.0917,-0.0935,-0.0942,-0.0968,-0.0971,-0.0977,-0.0969,-0.0966,-0.0972,-0.095,-0.0943,-0.0939,-0.0936,-0.0903,-0.0897,-0.0971,-0.0971,-0.0971,0,-0.0575,-0.0656,-0.0729,-0.0761,-0.0784,-0.0833,-0.0848,-0.0864,-0.0898,-0.0907,-0.0915,-0.0943,-0.0953,-0.0956,-0.0949,-0.0961,-0.0954,-0.0959,-0.0939,-0.0935,-0.0932,-0.09,-0.0894,-0.097,-0.097,-0.097,-0.097,0,-0.0569,-0.0625,-0.0633,-0.0725,-0.0746,-0.0762,-0.0814,-0.0829,-0.0855,-0.0877,-0.0887,-0.0902,-0.0919,-0.0917,-0.093,-0.0914,-0.0913,-0.0936,-0.0943,-0.0926,-0.0893,-0.0887,-0.0968,-0.0968,-0.0969,-0.0969,0,0,-0.0498,-0.0616,-0.0621,-0.066,-0.0738,-0.0754,-0.0776,-0.0817,-0.0826,-0.085,-0.0858,-0.0865,-0.0877,-0.0885,-0.0898,-0.0886,-0.0847,-0.0899,-0.0899,-0.0861,-0.0813,-0.0766,-0.0755,-0.0873,-0.0872,-0.0871,-0.0792,0,-0.0475,-0.0536,-0.0601,-0.0636,-0.0674,-0.0732,-0.0749,-0.0782,-0.0811,-0.0827,-0.0842,-0.0849,-0.0866,-0.0865,-0.086,-0.0858,-0.0833,-0.0865,-0.0841,-0.0839,-0.0796,-0.0748,-0.0599,-0.0513,-0.0786,-0.0785,-0.0785,0,-0.0465,-0.0515,-0.0554,-0.063,-0.0648,-0.0664,-0.0713,-0.0733,-0.0769,-0.0787,-0.0804,-0.0824,-0.0816,-0.083,-0.0805,-0.0829,-0.0811,-0.0802,-0.08,-0.0762,-0.0781,-0.0579,-0.0492,-0.0504,-0.0775,-0.0776,-0.0777,0,-0.0407,-0.0485,-0.052,-0.0547,-0.0628,-0.0638,-0.0671,-0.0712,-0.0722,-0.0755,-0.0756,-0.0777,-0.0766,-0.0767,-0.075,-0.078,-0.071,-0.0754,-0.0688,-0.0684,-0.0553,-0.0539,-0.0468,-0.0717,-0.0717,-0.0717,-0.0718,0,-0.0389,-0.0412,-0.0493,-0.0512,-0.0531,-0.0595,-0.0604,-0.0639,-0.0668,-0.0662,-0.0723,-0.0704,-0.0749,-0.0726,-0.0727,-0.0672,-0.069,-0.0659,-0.0656,-0.0537,-0.0524,-0.0528,-0.0585,-0.0714,-0.0715,-0.0716,-0.0716,0,-0.0333,-0.039,-0.0425,-0.0494,-0.0509,-0.0517,-0.0562,-0.0565,-0.06,-0.059,-0.0593,-0.0631,-0.0599,-0.062,-0.0601,-0.0616,-0.0557,-0.0558,-0.0402,-0.0383,-0.0363,-0.0423,-0.0337,-0.0353,-0.0483,-0.0481,-0.048,0,-0.0326,-0.034,-0.0394,-0.0403,-0.0433,-0.0457,-0.0466,-0.0517,-0.0516,-0.0527,-0.0506,-0.0489,-0.0448,-0.0412,-0.0404,-0.0375,-0.0444,-0.0273,-0.0309,-0.0315,-0.0381,-0.0411,-0.0435,-0.0113,-0.0108,-0.0105,-0.0102,0,-0.0304,-0.0312,-0.034,-0.0353,-0.0362,-0.0373,-0.0389,-0.0372,-0.0409,-0.0379,-0.0328,-0.029,-0.0246,-0.0135,-0.0128,-0.0136,-0.0249,-0.0202,-0.0239,-0.0102,-0.0095,-0.0123,-0.0213,-0.007,-0.0074,-0.0076,-0.0078,-0.0079,-0.0279,-0.0286,-0.0311,-0.0315,-0.0315,-0.029,-0.0274,-0.0259,-0.0214,-0.0128,-0.0115,0.005,0.0126,0.0174,0.0102,0.0098,-0.0015,0.0098,0.0024,-0.0006,-0.0015,-0.0032,0.0115,0.0113,0.0112,0.011,0.0109,0,-0.0254,-0.0272,-0.028,-0.028,-0.0252,-0.0263,-0.0227,-0.0179,-0.0086,0.009,0.0204,0.0498,0.0581,0.0534,0.0516,0.0394,0.0303,0.0292,0.0295,0.025,0.0247,0.0269,0.0495,0.0495,0.0495,0.0495,0.0495,0.0495,-0.0248,-0.0257,-0.0264,-0.023,-0.0215,-0.0159,-0.0123,-0.0022,0.0122,0.0425,0.0683,0.0847,0.0917,0.0776,0.064,0.0546,0.0396,0.041,0.0237,0.0249,0.0225,0.0202,0.0212,0.0423,0.0423,0.0343,0.0342,0.0342]}],[{"header":{"parameterUnit":"m.s-1","parameterCategory":2,"la1":30.2991,"la2":30.254,"lo1":-89.0895,"lo2":-89.0444,"dx":0.0017,"dy":0.0017,"nx":28,"ny":28,"refTime":"2022-11-05T15:00:00:Z","depth":"2","parameterNumber":2,"parameterNumberName":"U-component_of_CURRENTS"},"data":[0,0,0,0,0,0,0,0,0,0,0,0,0,0,0,0,0,0,0,0,0,0,0,0,0,0,0,0,0,0,0,0,0,0,0,0,0,0,0,0,0,0,0,0,0,0,0,0,0,0,0,0,0,0,0,0,0,0,0.2013,0.2014,0,0.2069,0.2069,0.2069,0.2163,0.2165,0.2167,0.2169,0.2181,0.218,0.2178,0,0,0,0,0,0,0,0,0,0,0,0,0,0.1963,0.1963,0.2013,0.2014,0.2016,0.2069,0.2069,0.207,0.2162,0.2165,0.2168,0.217,0.2182,0.218,0.2178,0,0,0,0,0,0,0,0,0,0,0,0,0,0.1993,0.1963,0.2013,0.2072,0.2079,0.2069,0.2069,0.207,0.2162,0.2165,0.2169,0.2172,0.2183,0.218,0.2177,0.2094,0,0,0.2169,0.2168,0,0,0,0,0,0,0,0,0.1991,0.1994,0.2063,0.2068,0.2075,0.2117,0.2057,0.2078,0.2161,0.2124,0.217,0.2173,0.2157,0.2156,0.2152,0.2095,0.2095,0.2169,0.2168,0.2166,0.2166,0,0,0,0,0,0,0,0.1989,0.1992,0.203,0.2064,0.2072,0.2089,0.2096,0.2061,0.2116,0.2128,0.2136,0.215,0.216,0.2155,0.2153,0.2095,0.2169,0.2167,0.2165,0.2164,0.214,0.2141,0,0,0,0,0,0,0.1991,0.199,0.2028,0.2032,0.2047,0.2087,0.2095,0.2096,0.2118,0.2126,0.2147,0.2154,0.2158,0.2156,0.2154,0.2216,0.2166,0.2164,0.2162,0.2139,0.214,0.2141,0,0,0,0,0,0,0.1989,0.1993,0.2026,0.2018,0.2024,0.2085,0.2085,0.2095,0.2135,0.2134,0.2141,0.2182,0.216,0.2158,0.2175,0.2212,0.2163,0.216,0.2138,0.214,0.2141,0.2238,0,0,0,0,0,0,0.1987,0.1991,0.1998,0.2017,0.2025,0.2047,0.2082,0.2094,0.2138,0.2149,0.2164,0.2167,0.2163,0.2179,0.2172,0.2207,0.2158,0.2137,0.2139,0.214,0.2233,0.2242,0.225,0,0,0,0,0,0.1985,0.1979,0.1998,0.2004,0.203,0.2048,0.2053,0.2104,0.2137,0.2152,0.2179,0.2169,0.2186,0.2177,0.2169,0.2204,0.2136,0.2138,0.214,0.223,0.224,0.225,0,0,0,0,0,0,0.1969,0.1989,0.201,0.2014,0.2044,0.2067,0.2086,0.2115,0.2144,0.2164,0.2169,0.2172,0.2202,0.2178,0.2169,0.2202,0.2162,0.2163,0.2233,0.2243,0.2251,0.2283,0.2156,0,0,0,0,0,0.1964,0.1969,0.1994,0.2006,0.2018,0.2054,0.2073,0.2105,0.2131,0.215,0.2168,0.2181,0.2191,0.2202,0.2195,0.2198,0.2198,0.2218,0.2226,0.2233,0.2254,0.2293,0.2307,0.2148,0.2148,0.2148,0,0,0.1973,0.1978,0.199,0.2004,0.2029,0.2065,0.2074,0.2107,0.2157,0.2139,0.2207,0.2202,0.2196,0.2223,0.2234,0.2218,0.2276,0.2236,0.2243,0.2259,0.2297,0.2312,0.2326,0.215,0.215,0.2149,0,0,0.1993,0.1987,0.2009,0.2025,0.2062,0.208,0.2099,0.2136,0.2174,0.2219,0.2229,0.2256,0.2265,0.228,0.2286,0.2325,0.2314,0.232,0.2395,0.2433,0.2447,0.2459,0.2473,0.2486,0.2331,0.2331,0.2331,0,0.1998,0.2021,0.2021,0.2046,0.207,0.2097,0.2136,0.217,0.2218,0.2241,0.2263,0.2311,0.2301,0.2346,0.2377,0.2347,0.2361,0.2361,0.2447,0.2459,0.247,0.2481,0.2494,0.2336,0.2335,0.2335,0.2334,0,0.2053,0.2063,0.2073,0.2117,0.2145,0.2166,0.2216,0.2254,0.2301,0.2335,0.2396,0.2403,0.2434,0.2438,0.2428,0.2496,0.2477,0.2451,0.2428,0.2493,0.2499,0.2511,0.2343,0.2341,0.234,0.2338,0,0,0.2048,0.2098,0.2103,0.2117,0.2171,0.2188,0.2271,0.2325,0.2364,0.244,0.2496,0.2548,0.2553,0.256,0.2549,0.2595,0.2679,0.2573,0.2572,0.2598,0.2762,0.2611,0.2609,0.268,0.2682,0.2685,0.2732,0,0.208,0.2128,0.2158,0.2208,0.2222,0.2263,0.2319,0.2378,0.2433,0.2485,0.2537,0.2581,0.2601,0.2615,0.2673,0.2671,0.2717,0.2668,0.2685,0.2685,0.2554,0.262,0.238,0.2391,0.2743,0.2745,0.2746,0,0.2108,0.2127,0.2185,0.2205,0.2218,0.2268,0.2332,0.239,0.2471,0.2515,0.2602,0.2627,0.2722,0.271,0.2817,0.2792,0.2795,0.28,0.2801,0.2639,0.2557,0.2383,0.2399,0.2766,0.2764,0.2763,0.2762,0,0.2076,0.2123,0.2163,0.2178,0.2234,0.2273,0.2319,0.24,0.244,0.2546,0.257,0.2694,0.2726,0.2817,0.2837,0.2848,0.2913,0.2914,0.2785,0.2773,0.2559,0.2523,0.2981,0.2981,0.298,0.298,0.298,0,0.2061,0.2081,0.2146,0.2164,0.2192,0.2249,0.2303,0.2363,0.2443,0.2486,0.2582,0.2627,0.2757,0.2797,0.2854,0.2846,0.2932,0.2816,0.2786,0.2581,0.2548,0.286,0.2845,0.2982,0.2982,0.2981,0.2981,0,0.2028,0.2071,0.2089,0.2152,0.2178,0.2203,0.2296,0.2326,0.2403,0.2467,0.2506,0.2593,0.2685,0.2754,0.2849,0.2811,0.2846,0.2801,0.2536,0.2473,0.269,0.268,0.2728,0.2723,0.2719,0.2716,0.2713,0,0.2033,0.204,0.2085,0.2097,0.2135,0.2191,0.2227,0.2317,0.2354,0.2447,0.2458,0.2543,0.255,0.2597,0.2618,0.2659,0.276,0.2393,0.2372,0.2704,0.267,0.2666,0.2661,0.2132,0.2125,0.2119,0.2114,0,0.2009,0.2017,0.2023,0.2065,0.2098,0.2137,0.2198,0.2195,0.2293,0.2312,0.2336,0.2338,0.238,0.2279,0.2265,0.2283,0.2385,0.227,0.2695,0.2216,0.2141,0.2108,0.2124,0.2061,0.2066,0.207,0.2073,0.2075,0.1973,0.196,0.1969,0.1993,0.204,0.2053,0.2017,0.2071,0.2067,0.2029,0.2132,0.2019,0.2022,0.1892,0.187,0.1888,0.2095,0.1985,0.2005,0.2031,0.1936,0.1856,0.1705,0.1708,0.1711,0.1713,0.1715,0,0.1895,0.1889,0.1912,0.1906,0.1913,0.2006,0.1969,0.1886,0.1811,0.1801,0.1772,0.1523,0.1398,0.147,0.1394,0.1391,0.1419,0.1353,0.1359,0.1411,0.1458,0.1336,0.0945,0.0943,0.0941,0.094,0,0,0.1843,0.1805,0.1807,0.1764,0.1809,0.1765,0.1704,0.158,0.1487,0.1329,0.1225,0.1254,0.1299,0.1047,0.1059,0.0974,0.1187,0.0942,0.1552,0.1605,0.1649,0.181,0.1678,0,0,0,0,0]},{"header":{"parameterUnit":"m.s-1","parameterCategory":2,"la1":30.2991,"la2":30.254,"lo1":-89.0895,"lo2":-89.0444,"dx":0.0017,"dy":0.0017,"nx":28,"ny":28,"refTime":"2022-11-05T15:00:00:Z","depth":"2","parameterNumber":3,"parameterNumberName":"V-component_of_CURRENTS"},"data":[0,0,0,0,0,0,0,0,0,0,0,0,0,0,0,0,0,0,0,0,0,0,0,0,0,0,0,0,0,0,0,0,0,0,0,0,0,0,0,0,0,0,0,0,0,0,0,0,0,0,0,0,0,0,0,0,0,0,0.0306,0.0305,0,0.025,0.0249,0.0249,0.0205,0.0204,0.0203,0.0203,0.0103,0.0101,0.0099,0,0,0,0,0,0,0,0,0,0,0,0,0,0.0275,0.0277,0.0306,0.0305,0.0304,0.025,0.0249,0.0249,0.0205,0.0204,0.0203,0.0202,0.0103,0.0101,0.0099,0,0,0,0,0,0,0,0,0,0,0,0,0,0.0263,0.0277,0.0306,0.0274,0.027,0.025,0.0249,0.0248,0.0205,0.0204,0.0203,0.0202,0.0104,0.0101,0.0098,0.0099,0,0,0.0089,0.0087,0,0,0,0,0,0,0,0,0.0264,0.0265,0.028,0.0276,0.0272,0.0231,0.0201,0.0195,0.0205,0.0232,0.0203,0.0202,0.0141,0.0135,0.013,0.0094,0.009,0.0089,0.0087,0.0085,0.0084,0,0,0,0,0,0,0,0.0265,0.0266,0.0286,0.0279,0.0274,0.0227,0.0226,0.02,0.0194,0.023,0.0226,0.0216,0.0139,0.0133,0.0127,0.0088,0.0089,0.0086,0.0084,0.0083,0.0007,0.0007,0,0,0,0,0,0,0.0274,0.0268,0.0288,0.0284,0.0263,0.0229,0.0227,0.0247,0.0195,0.0186,0.0217,0.0214,0.0139,0.0131,0.0124,0.0099,0.0085,0.0082,0.0081,0.0007,0.0007,0.0007,0,0,0,0,0,0,0.0274,0.0278,0.029,0.027,0.0268,0.0231,0.0253,0.0246,0.0225,0.0185,0.0175,0.02,0.0138,0.0128,0.0092,0.0096,0.0081,0.0078,0.0007,0.0007,0.0007,0.0065,0,0,0,0,0,0,0.0274,0.0279,0.0291,0.0273,0.027,0.0276,0.0254,0.0246,0.022,0.0215,0.0167,0.0158,0.0137,0.0097,0.0089,0.0091,0.0076,0.0007,0.0007,0.0007,0.0063,0.0066,0.0069,0,0,0,0,0,0.0274,0.0294,0.0293,0.0294,0.0291,0.0276,0.0271,0.024,0.022,0.0216,0.0181,0.0159,0.0089,0.0095,0.0085,0.0087,0.0008,0.0007,0.0007,0.0062,0.0066,0.0069,0,0,0,0,0,0,0.0276,0.0291,0.0289,0.0311,0.0293,0.0267,0.0259,0.0235,0.0206,0.0194,0.0157,0.0146,0.0118,0.0091,0.0097,0.0062,0.0044,0.0042,0.0089,0.0093,0.0096,0.0119,0.0073,0,0,0,0,0,0.0287,0.0312,0.0305,0.0316,0.0315,0.0285,0.0272,0.0248,0.022,0.0206,0.0175,0.0138,0.0113,0.0093,0.0067,0.0046,0.0047,0.0039,0.0042,0.0045,0.0057,0.0078,0.0086,0.0005,0.0005,0.0005,0,0,0.0281,0.0297,0.0304,0.0318,0.0305,0.0307,0.0276,0.0254,0.0252,0.0199,0.0185,0.0148,0.011,0.0092,0.0076,0.0066,0.0064,0.0045,0.0048,0.0058,0.0079,0.0087,0.0095,0.0005,0.0005,0.0005,0,0,0.0293,0.0309,0.0336,0.0331,0.0318,0.0306,0.0298,0.0272,0.0262,0.0239,0.0205,0.0176,0.0128,0.0114,0.0098,0.0101,0.0083,0.0077,0.0111,0.0132,0.014,0.0147,0.0149,0.0156,0.0077,0.0077,0.0077,0,0.0288,0.033,0.0332,0.0352,0.035,0.0309,0.0321,0.0308,0.0268,0.0279,0.0239,0.0195,0.0149,0.015,0.0136,0.0113,0.0111,0.0103,0.014,0.0147,0.0153,0.0154,0.0161,0.008,0.008,0.0079,0.0079,0,0.0319,0.0345,0.0355,0.0384,0.038,0.0375,0.0364,0.0363,0.0337,0.0328,0.0319,0.026,0.024,0.021,0.0163,0.0179,0.0159,0.0147,0.0139,0.0165,0.0163,0.0169,0.0084,0.0083,0.0082,0.0081,0,0,0.0332,0.0375,0.0377,0.0404,0.0396,0.0402,0.0415,0.0433,0.0466,0.0412,0.0454,0.0374,0.0342,0.0319,0.0263,0.0256,0.0272,0.0207,0.0207,0.0225,0.0305,0.0286,0.029,0.0267,0.0269,0.027,0.0285,0,0.0357,0.0418,0.0422,0.0457,0.0489,0.0473,0.05,0.0506,0.0507,0.0539,0.049,0.0487,0.0385,0.0368,0.0347,0.029,0.0291,0.0268,0.0264,0.0264,0.0257,0.0298,0.0301,0.0315,0.029,0.0291,0.0292,0,0.0389,0.0437,0.0487,0.0539,0.055,0.0551,0.0611,0.0623,0.0658,0.0666,0.0656,0.0621,0.058,0.0502,0.0437,0.0423,0.0369,0.0325,0.0325,0.0295,0.0257,0.0284,0.0326,0.0302,0.0301,0.03,0.03,0,0.043,0.0478,0.0529,0.0538,0.0587,0.0606,0.0616,0.0657,0.0708,0.0739,0.0774,0.0736,0.0708,0.0645,0.0519,0.0483,0.0469,0.0421,0.0365,0.0362,0.0359,0.0354,0.0417,0.0417,0.0417,0.0417,0.0417,0,0.047,0.0507,0.0546,0.0581,0.064,0.0643,0.0707,0.0734,0.0796,0.0863,0.082,0.0858,0.074,0.0707,0.0594,0.0496,0.0532,0.0387,0.0376,0.0375,0.0372,0.0353,0.0345,0.0417,0.0417,0.0417,0.0417,0,0.0507,0.0528,0.0599,0.0656,0.0663,0.07,0.0752,0.0822,0.0851,0.0939,0.0951,0.0957,0.0897,0.0798,0.0705,0.0591,0.051,0.0477,0.0471,0.0458,0.0366,0.036,0.0411,0.0411,0.0411,0.0411,0.041,0,0.0534,0.058,0.0656,0.069,0.0705,0.0748,0.0797,0.0845,0.0939,0.0993,0.1067,0.1034,0.104,0.0904,0.0733,0.0591,0.0549,0.0478,0.0408,0.0386,0.0371,0.0366,0.0361,0.042,0.0419,0.0419,0.0419,0,0.0613,0.0634,0.0699,0.0768,0.081,0.0875,0.0947,0.1037,0.1102,0.1158,0.1233,0.1228,0.1098,0.0957,0.0761,0.0646,0.0495,0.047,0.049,0.0414,0.0394,0.0378,0.0373,0.0419,0.0419,0.0419,0.0419,0.0419,0.0665,0.0712,0.0793,0.0855,0.0907,0.1001,0.1068,0.1153,0.1266,0.134,0.1354,0.1296,0.1154,0.0882,0.0718,0.0506,0.0514,0.0405,0.0406,0.0406,0.0399,0.0379,0.0398,0.0398,0.0398,0.0398,0.0398,0,0.0733,0.079,0.087,0.0948,0.102,0.1022,0.1182,0.1233,0.1333,0.1357,0.1386,0.1198,0.1075,0.0878,0.058,0.0426,0.04,0.0347,0.0352,0.0355,0.0357,0.0346,0.0332,0.0331,0.033,0.0329,0,0,0.0769,0.0854,0.0899,0.1034,0.1073,0.1173,0.1257,0.1282,0.133,0.1312,0.1255,0.1281,0.1079,0.0844,0.0659,0.0482,0.0437,0.0434,0.0507,0.0539,0.0542,0.0416,0.0406,0,0,0,0,0]}],[{"header":{"parameterUnit":"m.s-1","parameterCategory":2,"la1":30.2991,"la2":30.254,"lo1":-89.0895,"lo2":-89.0444,"dx":0.0017,"dy":0.0017,"nx":28,"ny":28,"refTime":"2022-11-05T15:00:00:Z","depth":"4","parameterNumber":2,"parameterNumberName":"U-component_of_CURRENTS"},"data":[0,0,0,0,0,0,0,0,0,0,0,0,0,0,0,0,0,0,0,0,0,0,0,0,0,0,0,0,0,0,0,0,0,0,0,0,0,0,0,0,0,0,0,0,0,0,0,0,0,0,0,0,0,0,0,0,0,0,0.0379,0.0378,0,0.0338,0.0338,0.0338,0.031,0.031,0.0309,0.0308,0.0357,0.0359,0.0361,0,0,0,0,0,0,0,0,0,0,0,0,0,0.056,0.0556,0.0379,0.0378,0.0377,0.0338,0.0338,0.0338,0.0311,0.031,0.0308,0.0308,0.0356,0.0359,0.0361,0,0,0,0,0,0,0,0,0,0,0,0,0,0.0503,0.0555,0.038,0.0353,0.035,0.0338,0.0338,0.0338,0.0311,0.0309,0.0308,0.0307,0.0356,0.0359,0.0362,0.0407,0,0,0.0371,0.0373,0,0,0,0,0,0,0,0,0.0506,0.0497,0.0358,0.0355,0.0351,0.0322,0.0419,0.0363,0.0311,0.0333,0.0308,0.0306,0.035,0.0354,0.0357,0.0409,0.0411,0.0372,0.0374,0.0375,0.0376,0,0,0,0,0,0,0,0.051,0.0499,0.037,0.0357,0.0353,0.0386,0.0376,0.041,0.0356,0.0331,0.0327,0.0312,0.035,0.0354,0.0359,0.0412,0.0372,0.0374,0.0376,0.0378,0.0468,0.0469,0,0,0,0,0,0,0.0495,0.0502,0.0371,0.0368,0.0419,0.0383,0.0372,0.0338,0.0354,0.0352,0.0313,0.0311,0.035,0.0355,0.036,0.0406,0.0375,0.0378,0.038,0.0468,0.0468,0.0469,0,0,0,0,0,0,0.0498,0.0483,0.0373,0.043,0.0418,0.0379,0.0343,0.0338,0.035,0.0338,0.0339,0.0329,0.0349,0.0356,0.0383,0.0408,0.0379,0.0382,0.0467,0.0468,0.0469,0.0503,0,0,0,0,0,0,0.0504,0.0484,0.0464,0.0428,0.0413,0.0364,0.0343,0.0338,0.0338,0.0335,0.0353,0.0355,0.0348,0.0378,0.0386,0.0412,0.0385,0.0466,0.0467,0.0468,0.0501,0.0505,0.0508,0,0,0,0,0,0.051,0.0467,0.0463,0.0448,0.0383,0.0363,0.036,0.0335,0.034,0.0344,0.0352,0.0355,0.039,0.0382,0.0391,0.0418,0.0466,0.0467,0.0468,0.05,0.0504,0.0508,0,0,0,0,0,0,0.0531,0.0458,0.0453,0.039,0.0383,0.0356,0.0348,0.0351,0.0363,0.0364,0.0369,0.0372,0.0406,0.0407,0.0398,0.0443,0.0427,0.043,0.0447,0.0452,0.0455,0.0461,0.0387,0,0,0,0,0,0.0529,0.0474,0.0442,0.0396,0.0396,0.0389,0.0382,0.0372,0.0369,0.0373,0.0381,0.0394,0.0419,0.043,0.0445,0.048,0.0503,0.0499,0.0503,0.0506,0.0515,0.057,0.058,0.0473,0.0473,0.0473,0,0,0.0524,0.0475,0.0446,0.0398,0.0394,0.0389,0.0383,0.0373,0.0379,0.038,0.0398,0.0415,0.0432,0.0457,0.0473,0.0462,0.0548,0.0507,0.051,0.0518,0.0572,0.0583,0.0592,0.0474,0.0473,0.0473,0,0,0.0494,0.0455,0.0417,0.0414,0.0397,0.0391,0.0396,0.0387,0.0398,0.0423,0.0423,0.0456,0.0485,0.0496,0.0511,0.055,0.0568,0.055,0.0573,0.0626,0.0636,0.0644,0.0691,0.0704,0.0547,0.0547,0.0547,0,0.0502,0.0441,0.0412,0.0396,0.0392,0.0398,0.0396,0.041,0.0411,0.0443,0.043,0.0498,0.0508,0.056,0.0556,0.0562,0.0587,0.0558,0.0632,0.0642,0.065,0.0696,0.0709,0.0549,0.0549,0.0548,0.0548,0,0.0456,0.0429,0.0415,0.0388,0.0387,0.0383,0.0396,0.0421,0.0444,0.0466,0.0532,0.0544,0.059,0.0592,0.0586,0.0649,0.0647,0.0636,0.0626,0.0663,0.0708,0.0722,0.0551,0.0551,0.055,0.055,0,0,0.0442,0.039,0.0395,0.0394,0.0387,0.0383,0.0414,0.0454,0.0505,0.0526,0.0592,0.0628,0.0655,0.0671,0.0674,0.0703,0.0779,0.0688,0.069,0.0741,0.0897,0.0803,0.0808,0.0781,0.0783,0.0785,0.0906,0,0.0436,0.039,0.0373,0.0373,0.0367,0.0395,0.043,0.0474,0.0523,0.0588,0.0639,0.0702,0.068,0.0714,0.0742,0.0769,0.0816,0.0748,0.0847,0.085,0.0767,0.0821,0.0793,0.0916,0.0919,0.0922,0.0923,0,0.0416,0.0388,0.037,0.0378,0.0387,0.0397,0.0472,0.0506,0.0608,0.0661,0.0734,0.0773,0.0836,0.0808,0.0897,0.0853,0.0886,0.09,0.0905,0.0815,0.0781,0.0869,0.0948,0.0946,0.0944,0.0943,0.0941,0,0.0415,0.0397,0.0377,0.0378,0.0391,0.0422,0.0449,0.0539,0.06,0.0717,0.078,0.0859,0.0909,0.0958,0.0983,0.0957,0.1066,0.1044,0.1,0.0994,0.1028,0.1017,0.1131,0.1131,0.1131,0.1131,0.113,0,0.0398,0.0395,0.0382,0.0378,0.041,0.0427,0.0499,0.0558,0.0659,0.0737,0.0821,0.0882,0.0948,0.1008,0.1025,0.1046,0.1118,0.1021,0.1023,0.1038,0.1027,0.1038,0.1025,0.1135,0.1134,0.1133,0.1132,0,0.0383,0.037,0.0368,0.0389,0.0403,0.0433,0.0508,0.0562,0.0674,0.0773,0.0818,0.0926,0.1,0.1053,0.1132,0.1099,0.1133,0.113,0.1151,0.115,0.102,0.1008,0.1108,0.1105,0.1104,0.1102,0.1101,0,0.0347,0.0341,0.0373,0.0382,0.0389,0.0437,0.0472,0.0567,0.0617,0.0785,0.0816,0.0938,0.0998,0.1039,0.1091,0.1146,0.1126,0.1146,0.1071,0.1028,0.1021,0.1012,0.1002,0.1098,0.1097,0.1097,0.1096,0,0.0306,0.0336,0.0345,0.0366,0.0391,0.0414,0.0461,0.0498,0.0617,0.0724,0.0807,0.0873,0.0948,0.0991,0.104,0.107,0.1128,0.1127,0.113,0.106,0.1017,0.101,0.1003,0.109,0.1091,0.1091,0.1092,0,0.0302,0.0302,0.033,0.0348,0.037,0.0371,0.0405,0.045,0.0519,0.0687,0.0706,0.0835,0.0925,0.0954,0.0997,0.1017,0.1003,0.0966,0.0978,0.0986,0.0886,0.081,0.0838,0,0,0,0,0,0.0303,0.0295,0.0295,0.031,0.0325,0.0341,0.0386,0.0424,0.0535,0.0567,0.0639,0.071,0.0795,0.0852,0.0851,0.0947,0.1002,0.0941,0.0962,0.1053,0.1061,0.0952,0,0,0,0,0,0,0.0305,0.031,0.0291,0.0274,0.0272,0.0282,0.0309,0.0377,0.0393,0.0513,0.0552,0.066,0.0737,0.0791,0.0837,0.0856,0.0852,0.1019,0.1016,0.1049,0.1056,0.1062,0.0953,0,0,0,0,0]},{"header":{"parameterUnit":"m.s-1","parameterCategory":2,"la1":30.2991,"la2":30.254,"lo1":-89.0895,"lo2":-89.0444,"dx":0.0017,"dy":0.0017,"nx":28,"ny":28,"refTime":"2022-11-05T15:00:00:Z","depth":"4","parameterNumber":3,"parameterNumberName":"V-component_of_CURRENTS"},"data":[0,0,0,0,0,0,0,0,0,0,0,0,0,0,0,0,0,0,0,0,0,0,0,0,0,0,0,0,0,0,0,0,0,0,0,0,0,0,0,0,0,0,0,0,0,0,0,0,0,0,0,0,0,0,0,0,0,0,0.0506,0.0507,0,0.0531,0.0531,0.0531,0.0548,0.0548,0.0548,0.0548,0.0523,0.0523,0.0522,0,0,0,0,0,0,0,0,0,0,0,0,0,0.0403,0.0405,0.0506,0.0507,0.0507,0.0531,0.0531,0.0531,0.0548,0.0548,0.0548,0.0549,0.0524,0.0523,0.0522,0,0,0,0,0,0,0,0,0,0,0,0,0,0.0439,0.0406,0.0506,0.0519,0.052,0.0531,0.0531,0.0531,0.0548,0.0548,0.0548,0.0549,0.0524,0.0523,0.0522,0.0509,0,0,0.0518,0.0517,0,0,0,0,0,0,0,0,0.0437,0.0443,0.0516,0.0518,0.0519,0.0537,0.0485,0.0521,0.0548,0.0537,0.0549,0.0549,0.0523,0.0522,0.0526,0.0508,0.0506,0.0518,0.0517,0.0516,0.0516,0,0,0,0,0,0,0,0.0435,0.0442,0.0515,0.0517,0.0519,0.0498,0.0505,0.0492,0.0527,0.0538,0.0539,0.0543,0.0524,0.0528,0.0526,0.0506,0.0518,0.0517,0.0516,0.0515,0.0484,0.0484,0,0,0,0,0,0,0.0437,0.044,0.0515,0.0516,0.0479,0.05,0.0507,0.0531,0.0528,0.0529,0.0542,0.0543,0.053,0.0527,0.0525,0.0533,0.0516,0.0515,0.0515,0.0484,0.0484,0.0484,0,0,0,0,0,0,0.0435,0.0444,0.0514,0.0477,0.0485,0.0503,0.0528,0.0531,0.0544,0.0532,0.0532,0.0554,0.053,0.0527,0.0529,0.0532,0.0515,0.0514,0.0484,0.0484,0.0484,0.0535,0,0,0,0,0,0,0.0432,0.0444,0.0463,0.0479,0.0487,0.0522,0.0528,0.0531,0.0546,0.0548,0.0542,0.054,0.053,0.0531,0.0528,0.0529,0.0513,0.0484,0.0484,0.0484,0.0533,0.0536,0.0539,0,0,0,0,0,0.0429,0.0451,0.0464,0.0473,0.0514,0.0522,0.0525,0.0536,0.0546,0.055,0.0555,0.054,0.0527,0.053,0.0526,0.0528,0.0484,0.0484,0.0484,0.0532,0.0536,0.0539,0,0,0,0,0,0,0.041,0.0456,0.047,0.0505,0.0515,0.0526,0.0536,0.0542,0.0551,0.0556,0.0547,0.0545,0.0544,0.0527,0.0532,0.0516,0.0499,0.0498,0.0537,0.054,0.0543,0.0541,0.0512,0,0,0,0,0,0.0418,0.0455,0.0477,0.0505,0.0513,0.0527,0.0534,0.0541,0.0549,0.0554,0.0553,0.0546,0.0538,0.0535,0.0522,0.0519,0.0497,0.0513,0.0516,0.0519,0.0513,0.0493,0.0494,0.0483,0.0483,0.0483,0,0,0.0416,0.0449,0.0468,0.0504,0.0518,0.053,0.0532,0.0546,0.0559,0.0547,0.0568,0.0558,0.0539,0.0538,0.0534,0.0527,0.051,0.0518,0.0521,0.0514,0.0493,0.0494,0.0495,0.0483,0.0483,0.0483,0,0,0.0427,0.0464,0.0494,0.0507,0.0531,0.0537,0.0543,0.0559,0.0571,0.0586,0.0578,0.0574,0.0569,0.0555,0.0546,0.0555,0.0527,0.0547,0.0563,0.0544,0.0545,0.0545,0.0524,0.0522,0.0549,0.0549,0.0549,0,0.0421,0.0473,0.0497,0.0522,0.0539,0.0543,0.0562,0.0569,0.0584,0.0594,0.0598,0.059,0.0576,0.0566,0.057,0.0562,0.0546,0.0556,0.0549,0.0549,0.0549,0.0526,0.0523,0.0551,0.0551,0.0551,0.0551,0,0.0451,0.049,0.0506,0.055,0.0561,0.0581,0.0592,0.0604,0.062,0.0627,0.0632,0.0617,0.061,0.0602,0.0592,0.0578,0.0566,0.0558,0.0545,0.0553,0.0528,0.0525,0.0555,0.0554,0.0553,0.0553,0,0,0.0445,0.0516,0.0524,0.0553,0.0585,0.0596,0.0617,0.0636,0.0652,0.0657,0.0672,0.0658,0.0649,0.0636,0.0615,0.0596,0.0584,0.0579,0.0577,0.0565,0.0541,0.0508,0.05,0.058,0.058,0.0579,0.0527,0,0.0464,0.0523,0.0554,0.0598,0.0623,0.0641,0.0662,0.0675,0.0684,0.0693,0.0675,0.0679,0.0661,0.066,0.0638,0.0598,0.0576,0.0599,0.0527,0.0525,0.05,0.0495,0.0578,0.0524,0.0523,0.0523,0.0522,0,0.0488,0.0526,0.0582,0.0639,0.0653,0.0676,0.0712,0.0733,0.0736,0.0743,0.0734,0.0716,0.0691,0.0673,0.0612,0.063,0.0587,0.0553,0.055,0.0496,0.0484,0.051,0.0515,0.0516,0.0516,0.0517,0.0517,0,0.0483,0.0548,0.0601,0.0621,0.0675,0.0706,0.0736,0.0753,0.0779,0.0775,0.0783,0.0744,0.0734,0.0677,0.0615,0.0615,0.054,0.0532,0.0457,0.0454,0.0479,0.0479,0.0479,0.0479,0.0479,0.048,0.048,0,0.0501,0.0541,0.0608,0.0636,0.069,0.0725,0.078,0.0794,0.0817,0.0847,0.0814,0.081,0.0736,0.0687,0.0621,0.053,0.0548,0.0452,0.0436,0.0502,0.0505,0.0477,0.0477,0.0478,0.0478,0.0478,0.0479,0,0.0495,0.0545,0.06,0.0668,0.0696,0.0736,0.0821,0.085,0.0872,0.0904,0.0908,0.0863,0.0802,0.0718,0.0619,0.0543,0.0456,0.0418,0.0494,0.0485,0.0378,0.0382,0.0322,0.032,0.0319,0.0318,0.0317,0,0.0505,0.0536,0.0617,0.0654,0.0694,0.0766,0.0817,0.0872,0.0903,0.0938,0.0943,0.0897,0.0857,0.0687,0.0596,0.0454,0.043,0.0372,0.0366,0.037,0.0361,0.0367,0.0372,0.0314,0.0314,0.0314,0.0313,0,0.0508,0.054,0.0582,0.0656,0.0722,0.0799,0.0874,0.0895,0.0963,0.098,0.096,0.0882,0.0801,0.0673,0.0563,0.0464,0.0401,0.0356,0.0358,0.0352,0.036,0.0354,0.0361,0.0308,0.0309,0.031,0.031,0,0.0509,0.0531,0.0592,0.0656,0.0734,0.0811,0.0855,0.0902,0.0944,0.0974,0.0965,0.0893,0.0852,0.0678,0.0582,0.0474,0.0437,0.038,0.038,0.0384,0.0413,0.0433,0.0384,0,0,0,0,0,0.0508,0.0538,0.059,0.0669,0.0741,0.0804,0.0884,0.0923,0.098,0.0962,0.0967,0.0895,0.0743,0.0675,0.0559,0.0547,0.0417,0.0404,0.035,0.0281,0.0287,0.0306,0,0,0,0,0,0,0.0508,0.0558,0.0583,0.067,0.0726,0.0827,0.0885,0.0927,0.0913,0.0939,0.0857,0.0841,0.0692,0.0814,0.0552,0.0522,0.0462,0.0346,0.0342,0.0278,0.0283,0.0288,0.031,0,0,0,0,0]}]]